Regional Weather Roundup
Issued by NWS Mobile, AL

Home | Current Version | Previous Version | Text Only | Print | Product List | Glossary On
Versions: 1 2 3 4 5 6 7 8 9 10 11 12 13 14 15 16 17 18 19 20 21 22 23 24 25 26 27 28 29 30 31 32 33 34 35 36 37 38 39 40 41 42 43 44 45 46 47 48 49 50
000
ASUS44 KMOB 271712
RWRMOB
REGIONAL WEATHER ROUNDUP
NATIONAL WEATHER SERVICE MOBILE AL
1200 PM CDT TUE SEP 27 2016

NOTE: "FAIR" INDICATES FEW OR NO CLOUDS BELOW 12,000 FEET WITH NO
      SIGNIFICANT WEATHER AND/OR OBSTRUCTIONS TO VISIBILITY.

  * THESE STATIONS ARE PART OF THE UNIVERSITY OF SOUTH ALABAMA
    MESONET AND ARE NOT UNDER NWS OR FAA QUALITY CONTROL.

ALZ061>064-271800-
COASTAL ALABAMA

CITY           SKY/WX    TMP DP  RH WIND       PRES   REMARKS
MOBILE REG APT PTSUNNY   84  73  69 S3        29.97F
BROOKLEY FIELD FAIR      83  75  77 SE6       29.97F
USA CAMPUS*    NOT AVBL
DOG RIVER*     NOT AVBL


CITY           SKY/WX    TMP DP  RH WIND       PRES   REMARKS
MOUNT VERNON*  NOT AVBL
SARALAND*      NOT AVBL
BAY MINETTE*   NOT AVBL
LOXLEY*        NOT AVBL
ROBERTSDALE*   NOT AVBL
FAIRHOPE*      NOT AVBL
ELBERTA*       NOT AVBL
FOLEY*         NOT AVBL
GRAND BAY*     NOT AVBL
DAUPHIN ISLND* NOT AVBL
BON SCOUR NWR* NOT AVBL
GULF SHORES    PTSUNNY   85  76  74 SE5       29.95F HX  95

$$

ALZ051>060-271800-
INTERIOR SOUTHWEST AND SOUTH CENTRAL ALABAMA

CITY           SKY/WX    TMP DP  RH WIND       PRES   REMARKS
GREENVILLE     NOT AVBL
EVERGREEN      FAIR      84  70  62 SW3       29.96F
CASTLEBERRY*   NOT AVBL
ATMORE*        NOT AVBL
DIXIE*         NOT AVBL
ANDALUSIA/OPP  FAIR      87  70  56 W3        29.96F
ANDALUSIA*     NOT AVBL
FLORALA APT    NOT AVBL
FLORALA*       NOT AVBL

$$

FLZ001>006-271800-
WESTERN FLORIDA PANHANDLE

CITY           SKY/WX    TMP DP  RH WIND       PRES   REMARKS
PENSACOLA      FAIR      86  73  65 SE7       29.95F
NAS PENSACOLA  PTSUNNY   84  74  71 SE7       29.95F
MILTON         PTSUNNY   83  73  72 VRB3      29.96F
WHTNG S FIELD  PTSUNNY   87  75  67 W3        29.96F HX  96


CITY           SKY/WX    TMP DP  RH WIND       PRES   REMARKS
WALNUT HILL*   NOT AVBL
JAY*           NOT AVBL
DUKE FIELD     PTSUNNY   83  69  63 SW2       29.96F
CRESTVIEW      FAIR      86  71  60 CALM      29.97F
VALPARAISO     PTSUNNY   85  69  56 SE6       29.95F
DESTIN         FAIR      88  71  57 S6        29.95F

$$

MSZ076-079-271800-
INTERIOR SOUTHEAST MISSISSIPPI

CITY           SKY/WX    TMP DP  RH WIND       PRES   REMARKS
LEAKESVILLE*   NOT AVBL
AGRICOLA*      NOT AVBL

$$

MARINE OBSERVATIONS

STATION/POSITION TIME  TEMP    WIND        PRES    WAVE
                       AIR SEA DIR/SP/G            HT/PER
                 (UTC) (F)     (DEG/KT/KT) (MB)    (FT/S)
PASCAGOULA       1600   82      20/  4/  5 1014.6F
PETIT BOIS ISLND 1600   82      50/  5/  7 1015.4S
GRAND BAY        1500   81      70/  4     1016.0R
KATRINA CUT      1600   82      70/  4     1015.6R
CEDAR POINT      1600   80      80/  4     1014.9R
E DAUPHIN ISLAND 1600   81      60/  5/  6 1014.5R
MIDDLE BAY LIGHT 1600   85     350/  2     1014.9S
USCG MOBILE BAY  1600   80 85  110/  4/  5 1015.5S
STATE DOCKS      1600   86 86              1014.9R
MEAHER PARK      1600   80     250/  3     1014.6F
WEEKS BAY        1500   83                   N/A
FORT MORGAN      1600   83     130/  5/  7 1014.2S
12 S ORANGE BCH  1650   83 86  170/  6/  8 1014.3F   1
PENSACOLA BAY    1600   84 85   80/  2/  5 1014.9F
64 S DAUPHIN ISL 1600   82 85  170/  6/  8 1014.4F
67 S FORT MORGAN 1630   80     200/  6     1014.6F

$$

SELECTED LOCATIONS ACROSS THE REGION

CITY           SKY/WX    TMP DP  RH WIND       PRES   REMARKS
NEW ORLEANS    PTSUNNY   85  73  67 N9        29.97F
GULFPORT       FAIR      85  71  63 CALM      29.95F
PASCAGOULA AP  FAIR      87  73  62 VRB3      29.95F
PASCAGOULA*    NOT AVBL
HATTIESBURG    FAIR      82  71  69 VRB5      29.98F
LAUREL         FAIR      81  68  65 N5        30.00F
MERIDIAN       FAIR      83  65  54 CALM      29.98F
JACKSON        FAIR      80  63  55 VRB6      30.01F
MONTGOMERY     FAIR      86  67  52 CALM      29.95F
TROY           FAIR      82  71  69 CALM      29.97F
KINSTON*       NOT AVBL
GENEVA*        NOT AVBL
ASHFORD*       NOT AVBL
DOTHAN         FAIR      86  71  60 VRB3      29.99F
PANAMA CITY    SUNNY     86  70  58 CALM      29.94F

$$




USA.gov is the U.S. government's official web portal to all federal, state and local government web resources and services.